Location: Czekanka
(50.4925°N, 19.2643°E)
Time: 15:27:20
(UTC+00:00)

SL-16 R/B - Pass Details

Date: 24 September 2024
Orbit: 842 x 846 km, 71.0° (Epoch: 07 October)

Event Time Altitude Azimuth Distance (km) Brightness Sun altitude
Rises 23:11:31 0° 326° (NNW) 3,412 5.8 -39.8°
Reaches altitude 10° 23:16:17 10° 2° (N) 2,474 5.3 -39.7°
Maximum altitude 23:17:47 11° 18° (NNE) 2,404 5.2 -39.6°
Drops below altitude 10° 23:19:17 10° 33° (NNE) 2,472 5.2 -39.6°
Sets 23:24:01 0° 69° (ENE) 3,404 5.8 -39.4°
